Skip Page Navigation
NASA JPL Caltech
NASA Logo - Jet Propulsion Laboratory + View the NASA Portal
+ Near-Earth Object (NEO) Program
Search JPL
JPL Home Earth Solar System Stars & Galaxies Technology
JPL Solar System Dynamics
BODIES ORBITS EPHEMERIDES TOOLS PHYSICAL DATA DISCOVERY FAQ SITE MAP
JPL Small-Body Database Browser
Search: [ help ]  
16582 (1992 JS3)
Classification: Main-belt Asteroid          SPK-ID: 2016582
Ephemeris | Orbit Diagram | Orbital Elements | Physical Parameters | Discovery Circumstances | Close-Approach Data ]

[ show orbit diagram ]
Orbital Elements at Epoch 2457000.5 (2014-Dec-09.0) TDB
Reference: JPL 14 (heliocentric ecliptic J2000)
 Element Value Uncertainty (1-sigma)   Units 
e .1331231660753979 9.6523e-08  
a 2.392996652128265 1.5174e-08 AU
q 2.074433361389123 2.3373e-07 AU
i 6.928711471446203 8.5861e-06 deg
node 40.57931428120051 4.2581e-05 deg
peri 162.5429042618907 4.7132e-05 deg
M 58.68648571287727 1.7982e-05 deg
tp 2456780.081944724934
(2014-May-02.58194473)
6.7592e-05 JED
period 1352.108563583869
3.70
1.2861e-05
3.521e-08
d
yr
n .2662508098061239 2.5325e-09 deg/d
Q 2.711559942867407 1.7194e-08 AU
  Orbit Determination Parameters
   # obs. used (total)      959  
   data-arc span      10087 days (27.62 yr)  
   first obs. used      1986-11-07  
   last obs. used      2014-06-20  
   planetary ephem.      DE431  
   SB-pert. ephem.      SB431-BIG16  
   condition code      0  
   fit RMS      .52439  
   data source      ORB  
   producer      Otto Matic  
   solution date      2014-Oct-09 14:32:53  

Additional Information
 Earth MOID = 1.07303 AU 
 T_jup = 3.509 
[ show covariance matrix ]

Ephemeris | Orbit Diagram | Orbital Elements | Physical Parameters | Discovery Circumstances | Close-Approach Data ]

Physical Parameter Table
Parameter Symbol Value Units Sigma Reference Notes
absolute magnitude H 14.1 mag n/a MPO302167  

16582 (1992 JS3)          Discovered 1992-May-11 by Debehogne, H. at La Silla (809)
Reference: 20000913/Numbers.arcLast Updated: 2004-04-19

[ show close-approach data ]
Alternate Designations
 1992 JS3 = 1986 VR9 = 1999 CZ52 = 1999 LL1 
Ephemeris | Orbit Diagram | Orbital Elements | Physical Parameters | Discovery Circumstances | Close-Approach Data ]
ABOUT SSD CREDITS/AWARDS PRIVACY/COPYRIGHT GLOSSARY LINKS
FirstGov 2014-Dec-21 14:26 UT
(server date/time)  
NASA Home Page
Site Manager:   Donald K. Yeomans
Webmaster  Alan B. Chamberlin